Skip Page Navigation
NASA JPL Caltech
NASA Logo - Jet Propulsion Laboratory + View the NASA Portal
+ Center for Near-Earth Object Studies
JPL Home Earth Solar System Stars & Galaxies Technology
JPL Solar System Dynamics
BODIES ORBITS EPHEMERIDES TOOLS PHYSICAL DATA DISCOVERY FAQ SITE MAP
JPL Small-Body Database Browser
Search: [ help ]  
447381 (2006 AB95)
Classification: Main-belt Asteroid          SPK-ID: 2447381
Ephemeris | Orbit Diagram | Orbital Elements | Mission Design | Physical Parameters | Discovery Circumstances ]

[ show orbit diagram ]
Orbital Elements at Epoch 2459396.5 (2021-Jul-01.0) TDB
Reference: JPL 9 (heliocentric ecliptic J2000)
 Element Value Uncertainty (1-sigma)   Units 
e .1597160505431146 1.2082e-07  
a 2.295800443379581 1.2631e-08 au
q 1.929124263727863 2.7332e-07 au
i .5810832419061855 5.899e-06 deg
node 234.1160147826034 0.0011652 deg
peri 242.9038989750549 0.0011661 deg
M 157.5343929207844 3.591e-05 deg
tp 2458840.502917223556
(2019-Dec-23.00291722)
0.00012576 TDB
period 1270.573022744112
3.48
1.0485e-05
2.871e-08
d
yr
n .2833367256786961 2.3382e-09 deg/d
Q 2.662476623031299 1.4648e-08 au
  Orbit Determination Parameters
   # obs. used (total)      105  
   data-arc span      6766 days (18.52 yr)  
   first obs. used      2001-09-12  
   last obs. used      2020-03-22  
   planetary ephem.      DE441  
   SB-pert. ephem.      SB441-N16  
   condition code      0  
   norm. resid. RMS      .50152  
   source      ORB  
   producer      Otto Matic  
   solution date      2021-Apr-14 15:01:29  

Additional Information
 Earth MOID = .945885 au 
 Jupiter MOID = 2.42247 au 
 T_jup = 3.578 
[ show covariance matrix ]

Ephemeris | Orbit Diagram | Orbital Elements | Mission Design | Physical Parameters | Discovery Circumstances ]

Physical Parameter Table
Parameter Symbol Value Units Sigma Reference Notes
absolute magnitude H 18.83   n/a E2021B25  

447381 (2006 AB95)          Discovered 2006-Jan-09 by Spacewatch at Kitt Peak
Reference: Last Updated: 2015-10-28
Ephemeris | Orbit Diagram | Orbital Elements | Mission Design | Physical Parameters | Discovery Circumstances ]
ABOUT SSD CREDITS/AWARDS PRIVACY/COPYRIGHT GLOSSARY LINKS
FirstGov 2021-Aug-03 08:36 UT
(server date/time)  
NASA Home Page
Site Manager:   Ryan S. Park
Webmaster  Alan B. Chamberlin